Regional Weather Roundup
Issued by NWS Sioux Falls, SD

Home | Current Version | Previous Version | Text Only | Print | Product List | Glossary On
Versions: 1 2 3 4 5 6 7 8 9 10 11 12 13 14 15 16 17 18 19 20 21 22 23 24 25 26 27 28 29 30 31 32 33 34 35 36 37 38 39 40 41 42 43 44 45 46 47 48 49 50
000
ASUS43 KFSD 040310
RWRFSD

WEATHER ROUNDUP FOR SE SOUTH DAKOTA/SW MINNESOTA/NW IOWA
NATIONAL WEATHER SERVICE SIOUX FALLS SD
1000 PM CDT THU SEP 03 2015

NOTE: "FAIR" INDICATES FEW OR NO CLOUDS BELOW 12,000 FEET WITH NO
SIGNIFICANT WEATHER AND OR OBSTRUCTIONS TO VISIBILITY.


SDZ038>040-050-052>070-040400-
SOUTHEAST SOUTH DAKOTA

CITY           SKY/WX    TMP DP  RH WIND       PRES   REMARKS
BROOKINGS      PTCLDY    75  72  88 SE10      29.85S
CHAMBERLAIN    CLOUDY    78  71  80 SE9       29.74R
HURON          MOCLDY    78  72  81 SE10      29.76R
MADISON        FAIR      73  73 100 SE8       29.83S
MITCHELL       MOCLDY    77  73  87 SE8       29.76S
SIOUX FALLS    MOCLDY    80  72  76 SE9       29.82R
WINNER         FAIR      80  69  69 SE12      29.74R
YANKTON        CLOUDY    75  72  88 E6        29.77R
$$

MNZ071-072-080-081-089-090-097-098-040400-
SOUTHWEST MINNESOTA

CITY           SKY/WX    TMP DP  RH WIND       PRES   REMARKS
FAIRMONT       PTCLDY    77  64  65 SE8       29.87R
JACKSON        PTCLDY    77  73  88 SE5       29.88R
LUVERNE        PTCLDY    77  72  83 SE3       29.85R
MARSHALL       CLEAR     77  70  78 SE7       29.86R
MONTEVIDEO     PTCLDY    79  75  89 S6        29.86R
PIPESTONE      PTCLDY    75  72  88 SE5       29.86S
REDWOOD FALLS  CLEAR     78  75  90 E7        29.85R
TRACY          CLEAR     76  73  91 SE3       29.86S
WINDOM         CLEAR     75  72  88 CALM      29.88R
WORTHINGTON    PTCLDY    73  70  88 E6        29.87R
$$

IAZ001>003-012>014-020>022-031-032-NEZ013-014-SDZ071-040400-
NORTHWEST IOWA

CITY           SKY/WX    TMP DP  RH WIND       PRES   REMARKS
CHEROKEE       CLEAR     76  74  93 S6        29.85R
DENISON        PTCLDY    79  72  78 S13G18    29.84R
ESTHERVILLE    CLEAR     74  72  93 S6        29.87R
LE MARS        PTCLDY    77  73  88 S6        29.83R
ORANGE CITY    PTCLDY    79  73  83 SE3       29.84S
SHELDON        PTCLDY    75  73  94 E6        29.84R
SIOUX CITY     PTCLDY    77  71  82 SE9       29.81R
SPENCER        PTCLDY    78  72  81 SE8       29.87R HAZE
STORM LAKE     CLEAR     75  73  94 SE7       29.88R
$$

ABBREVIATIONS USED IN REMARKS
   TC - TEMPERATURE IN CELSIUS
  WCI - WIND CHILL INDEX
   HX - HEAT INDEX
  VSB - VISIBILITY



USA.gov is the U.S. government's official web portal to all federal, state and local government web resources and services.